Flag Weather past 2 weeks in Husum, Schleswig-Holstein, Germany

Now
37 °F

Passing clouds.


Feels Like: 30 °F
Forecast: 34 / 40 °F
Wind: 12 mph from East

Location: Schleswig-Jagel

Current Time: Nov 27, 2014 at 7:48:50 PM

Latest Report: Nov 27, 2014 at 6:20 PM


Visibility: 5 mi

Pressure: 29.95 "Hg

Humidity: 81%

Dew point: 32 °F

Location of HusumLocation

Historic Weather in Husum — Graph

°F

Husum temperature yesterday

Maximum temperature yesterday: 43 °F (at 12:45 PM)
Minimum temperature yesterday: 30 °F (at 3:20 AM)
Average temperature yesterday: 37 °F

Past Weeks' High & Low Weather Summary

 TemperatureHumidityPressure
High52 °F (Nov 13, 11:55 AM)100% (Nov 12, 6:20 PM)30.39 "Hg (Nov 12, 6:20 PM)
Low28 °F (Nov 21, 6:20 AM)70% (Nov 27, 12:20 PM)29.59 "Hg (Nov 16, 2:20 PM)
Average44 °F92%30.04 "Hg
* Reported Nov 12 6:20 PM — Nov 27 6:20 PM, Husum, Weather by CustomWeather, © 2014

Note: Actual official high and low records may vary slightly from our data, if they occured in-between our weather recording intervals... More about our weather records

Advertising

Husum weather history for previous 24 hours

 ConditionsComfort  
Time TempWeatherWind HumidityBarometerVisibility
6:20 PM
Nov 27
37 °FPassing clouds.12 mph81%29.95 "Hg5 mi
5:20 PM37 °FPassing clouds.13 mph81%29.95 "Hg4 mi
4:20 PM37 °FPassing clouds.12 mph81%29.95 "Hg4 mi
3:20 PM39 °FPartly sunny.12 mph75%29.95 "Hg5 mi
2:20 PM39 °FScattered clouds.12 mph75%29.95 "Hg6 mi
1:20 PM41 °FScattered clouds.12 mph70%29.95 "Hg6 mi
12:20 PM41 °FScattered clouds.13 mph70%29.98 "Hg6 mi
11:20 AM39 °FPartly sunny.15 mph75%29.98 "HgN/A
10:20 AM37 °FPartly sunny.12 mph81%29.98 "HgN/A
9:20 AM36 °FScattered clouds.14 mph87%29.98 "Hg6 mi
8:20 AM36 °FScattered clouds.9 mph87%29.98 "Hg5 mi
7:20 AM36 °FPassing clouds.9 mph87%29.98 "HgN/A
6:20 AM36 °FChilly.9 mph87%29.98 "Hg4 mi
5:20 AM36 °FChilly.9 mph93%30.01 "Hg4 mi
4:20 AM37 °FChilly.12 mph87%30.01 "Hg4 mi
3:20 AM37 °FChilly.12 mph87%30.04 "Hg4 mi
2:20 AM37 °FChilly.13 mph87%30.04 "Hg4 mi
1:20 AM37 °FChilly.12 mph87%30.07 "Hg4 mi
12:20 AM37 °FChilly.12 mph87%30.07 "Hg4 mi
11:20 PM
Nov 26
36 °FChilly.9 mph93%30.09 "Hg4 mi
10:20 PM37 °FChilly.12 mph87%30.09 "Hg4 mi
9:20 PM37 °FChilly.13 mph87%30.12 "Hg4 mi
8:57 PM37 °FPassing clouds.9 mph93%30.09 "Hg6 mi
8:20 PM37 °FPassing clouds.10 mph93%30.09 "Hg6 mi
7:20 PM37 °FPassing clouds.9 mph93%30.12 "Hg6 mi
Weather by CustomWeather, © 2014

See weather overviewHow to use our weather pages